Location: Casone le Fosse
(44.6547°N, 12.1103°E)
Time: 10:59:02
(UTC+00:00)

Cosmos 1315 Rocket - Pass Details

Date: 29 October 2020
Orbit: 530 x 567 km, 81.2° (Epoch: 28 November)

Event Time Altitude Azimuth Distance (km) Brightness Sun altitude
Rises 17:39:31 0° 186° (S) 2,674 6.4 -17.5°
Reaches altitude 10° 17:41:38 10° 185° (S) 1,793 5.5 -17.8°
Maximum altitude 17:45:35 79° 99° (E) 559 2.6 -18.5°
Drops below altitude 10° 17:49:37 10° 13° (NNE) 1,831 5.3 -19.3°
Sets 17:51:49 0° 12° (NNE) 2,736 6.3 -19.6°
Enters shadow 17:51:55 - 12° (NNE) 2,780 6.3 -19.7°
